Вернуться в каталог

OPS 6432

АктивенНавигацияLEO
NORAD 14112·PAYLOAD·🇺🇸 United States

Запущен Jun 9, 1983 с Vandenberg Space Force Base

Loading…

Ближайшие Пролёты (ближайшие 24 часа)

TLE

СвежийSource: Space-Track

Эпоха: Sep 14, 2026, 08:57 UTC

1 14112U 83056A   26257.37313881  .00001484  00000-0  18828-3 0  9994
2 14112  63.3046 278.7267 0680168 134.8998 230.9380 13.89770932120695

Отслеживайте OPS 6432 в реальном времени с AllMySat

Download on the App Store